Hourly Weather Roundup
Issued by NWS Central Illinois

Home | Current Version | Previous Version | Text Only | Print | Product List | Glossary On
Versions: 1 2 3 4 5 6 7 8 9 10 11 12 13 14 15 16 17 18 19 20 21 22 23 24 25 26 27 28 29 30 31 32 33 34 35 36 37 38 39 40 41 42 43 44 45 46 47 48 49 50
000
NZUS43 KILX 221710
HWRILX

AREA WEATHER ROUNDUP
NATIONAL WEATHER SERVICE, LINCOLN IL
1200 PM CDT WED MAR 22 2017


CITY           SKY/WX    TMP DP  RH WIND       PRES   REMARKS
BLOOMINGTON    SUNNY     36  15  42 E16G24    30.54F WCI  26
CHAMPAIGN      SUNNY     37  16  42 NE17      30.53F WCI  27
DECATUR        SUNNY     39  12  33 MISG      30.52F
EFFINGHAM      SUNNY     42  22  45 NE8       30.51F
FLORA          SUNNY     43  22  43 E8G21     30.49F
GALESBURG      SUNNY     37  21  52 E12G17    30.54S WCI  30
JACKSONVILLE   SUNNY     40  17  38 E13G23    30.51F WCI  33
LACON          MOSUNNY   35  22  59 E13       30.56F WCI  26
LAWRENCEVILLE  LGT RAIN  43  19  38 NE13      30.50F
LITCHFIELD     SUNNY     40  19  43 NE13      30.49S WCI  33
$$


CITY           SKY/WX    TMP DP  RH WIND       PRES   REMARKS
LINCOLN        SUNNY     39  17  41 E12G21    30.54F WCI  31
MACOMB         SUNNY     39  19  43 E14       30.55S WCI  31
MATTOON        SUNNY     39  16  39 NE17      30.50F WCI  30
MT CARMEL AP   SUNNY     42  20  40 NE10G18   30.48F
OLNEY-NOBLE AP SUNNY     41  21  45 NE13      30.49F WCI  34
PARIS          SUNNY     37  19  47 E15G23    30.54F WCI  28
PEORIA         SUNNY     37  20  50 E12       30.55F WCI  29
PONTIAC        MOSUNNY   34  22  62 E10       30.59S WCI  26
RANTOUL        SUNNY     36  20  52 NE14      30.55F WCI  27
SPRINGFIELD    SUNNY     42  14  32 E17G25    30.52F WCI  34
TAYLORVILLE    SUNNY     39  13  34 E13G22    30.51F WCI  32
$$

...REGIONAL REPORTS...


CITY           SKY/WX    TMP DP  RH WIND       PRES   REMARKS
CHICAGO O`HARE PTSUNNY   35  18  49 E14       30.58S WCI  26
KANKAKEE       SUNNY     33  14  45 E9G18     30.59S WCI  26
MOLINE         SUNNY     37  17  44 E12       30.56S WCI  29
MOUNT STERLING SUNNY     39  22  49 E15       30.51F WCI  31
MOUNT VERNON   SUNNY     45  25  45 E15       30.46F
PITTSFIELD     SUNNY     41  22  46 E14       30.50F WCI  34
QUINCY         SUNNY     41  23  48 E15       30.49F WCI  33
ROCKFORD       MOSUNNY   35  14  42 E10       30.59F WCI  27
$$


CITY           SKY/WX    TMP DP  RH WIND       PRES   REMARKS
BURLINGTON     MOSUNNY   39  24  55 E13G21    30.52F WCI  31
CEDAR RAPIDS   MOSUNNY   36  20  52 E12       30.53F WCI  28
DES MOINES     CLOUDY    39  24  55 E14       30.47F WCI  31
KIRKSVILLE     CLOUDY    42  24  49 E17       30.46F WCI  34
OTTUMWA        SUNNY     40  24  53 SE14G22   30.49F WCI  32
ST LOUIS       PTSUNNY   45  21  38 E13       30.47F
$$


CITY           SKY/WX    TMP DP  RH WIND       PRES   REMARKS
TERRE HAUTE    SUNNY     38  16  40 NE12      30.52F WCI  30
EVANSVILLE     SUNNY     48  19  31 E12G22    30.46S
INDIANAPOLIS   MOSUNNY   35  15  44 E14       30.53S WCI  26
LAFAYETTE      SUNNY     33  16  49 NE9       30.57S WCI  25
MADISON        MOSUNNY   30  10  43 VRB6      30.58F WCI  24
MILWAUKEE      CLOUDY    32  16  51 E8        30.60F WCI  25
$$





USA.gov is the U.S. government's official web portal to all federal, state and local government web resources and services.